Location: Unspecified
(37.6100°N, 2.7800°W)
Time: 03:29:22
(UTC+00:00)

Hubble Space Telescope - Visible Passes

Search period start: 22 August 2018 00:00
Search period end: 01 September 2018 00:00
Orbit: 537 x 541 km, 28.5° (Epoch: 21 August)

Date Brightness Start Highest point End Pass type
(mag) Time Alt. Az. Time Alt. Az. Time Alt. Az.
29 Aug 3.2 04:33:17 10° S 04:34:36 11° SSE 04:35:56 10° SE visible
30 Aug 3.0 04:22:24 11° S 04:24:07 13° SSE 04:26:09 10° SE visible
31 Aug 2.8 04:12:38 14° S 04:13:37 15° SSE 04:16:06 10° SE visible
